Location: Wien
(48.2082°N, 16.3738°E)
Time: 11:06:42
(UTC+02:00)

Transit 4A - Pass Details

Date: 27 February 2024
Orbit: 871 x 971 km, 66.8° (Epoch: 24 April)

Event Time Altitude Azimuth Distance (km) Brightness Sun altitude
Exits shadow 03:35:17 20° 341° (NNW) 1,989 9.6 -31.1°
Drops below altitude 10° 03:38:59 10° 19° (NNE) 2,575 10.7 -30.6°
Sets 03:42:12 0° 36° (NE) 3,502 11.8 -30.1°
